Find Starlink 35600

NORAD ID: 66510 Int'l Des: 2025-263 Owner: SPXS Country: US Constellation: starlink operational
LEOCIRCULAR

現在のビュー

3D地球を読み込み中...

About Starlink 35600

Starlink 35600 (NORAD 66510) is a starlink constellation satellite (v2 mini) launched Nov 15, 2025 by SPXS of US. It operates in LEO, CIRCULAR orbit with a mass of 575.00 kg.

Starlink 35600について

説明を読み込み中...

次回通過

Passes for default location (London). Set your location on the main map for personalized predictions.

高度履歴

Loading altitude history...

軌道要素

1 66510U 25263AB 26194.48483227 .00015473 00000-0 57038-3 0 9992
2 66510 42.9975 0.6149 0000772 269.8402 90.2361 15.27593090 38130
Epoch: Jul 13, 2026 • Age: 15 hours

現在のステータス

高度 491.6 km
遠地点 / 近地点 N/A
速度 7.62 km/s
衛星直下点 -32.60°S, 113.47°W
打ち上げ日 Nov 15, 2025
運用期間 0.6 years
タイプ internet

技術仕様

分類 Payload
質量 575.00 kg
乾燥質量 530.00 kg
総質量 575.00 kg
長さ 0.30 m
直径 4.10 m
スパン 29.00 m
形状 Box + pan
製造者 SPXS
バスタイプ Starlink V2MO
フェーズステータス In Orbit
所有者/国 SPXS/US

Most Searched